Change the Weather History Date:

Monday, March 26, 2012

  Actual Average (KHSV) Record (KHSV)
Temperature  
Mean Temperature 62 °F 56 °F  
Max Temperature 77 °F 68 °F 88 °F (2007)
Min Temperature 46 °F 44 °F 20 °F (1955)
Degree Days  
Heating Degree Days 4 9  
Month to date heating degree days 325  
Since 1 July heating degree days 2777  
Cooling Degree Days 0 1  
Month to date cooling degree days 4  
Year to date cooling degree days 5  
Growing Degree Days 12 (Base 50)    
Moisture  
Dew Point 51 °F    
Average Humidity 72    
Maximum Humidity 100    
Minimum Humidity 41    
Precipitation  
Precipitation 0.00 in 0.18 in 2.09 in (2011)
Month to date precipitation 4.36  
Year to date precipitation 14.09  
Snow  
Snow 0.00 in - - ()
Month to date snowfall  
Since 1 July snowfall  
Snow Depth -    
Sea Level Pressure  
Sea Level Pressure 30.06 in    
Wind  
Wind Speed 4 mph (North)    
Max Wind Speed 15 mph    
Max Gust Speed 21 mph    
Visibility 8 miles    
Events      
T = Trace of Precipitation, MM = Missing Value Source: NWS Daily Summary

Daily Weather History Graph

Daily Weather History Graph

Search for Another Location

Airport or City:

Trip Planner

Search our weather history database for the weather conditions in past years. The results will help you decide how hot, cold, wet, or windy it might be!

Date:

Astronomy

Mar. 26, 2012 Rise Set
Actual Time 6:40 AM CDT 7:03 PM CDT
Civil Twilight 6:15 AM CDT 7:28 PM CDT
Nautical Twilight 5:45 AM CDT 7:58 PM CDT
Astronomical Twilight 5:15 AM CDT 8:28 PM CDT
Moon 8:40 AM CDT (3/26) 11:01 PM CDT (3/26)
Length of Visible Light 13h 12m
Length of Day
12h 22m
Waxing Crescent, 15% of the Moon is Illuminated
Mar 26
Waxing Crescent
Mar 30
First Quarter
Apr 6
Full
Apr 13
Last Quarter
Apr 21
New

Hourly Weather History & Observations

Time (CDT) Temp. Dew Point Humidity Pressure Visibility Wind Dir Wind Speed Gust Speed Precip Events Conditions
12:15 AM 55.4 °F 53.6 °F 94% 30.02 in 7.0 mi Calm Calm - N/A   Clear
12:35 AM 53.6 °F 53.6 °F 100% 30.03 in 7.0 mi Calm Calm - N/A   Clear
12:55 AM 53.6 °F 51.8 °F 94% 30.03 in 7.0 mi Calm Calm - N/A   Clear
1:15 AM 53.6 °F 51.8 °F 94% 30.03 in 7.0 mi Calm Calm - N/A   Clear
1:35 AM 51.8 °F 50.0 °F 94% 30.02 in 7.0 mi Calm Calm - N/A   Clear
1:55 AM 51.8 °F 51.8 °F 100% 30.03 in 7.0 mi Calm Calm - N/A   Clear
2:15 AM 51.8 °F 50.0 °F 94% 30.03 in 5.0 mi Calm Calm - N/A   Clear
2:35 AM 50.0 °F 50.0 °F 100% 30.02 in 3.0 mi Calm Calm - N/A   Clear
2:55 AM 50.0 °F 50.0 °F 100% 30.02 in 4.0 mi Calm Calm - N/A   Clear
3:15 AM 50.0 °F 50.0 °F 100% 30.02 in 5.0 mi Calm Calm - N/A   Clear
3:35 AM 50.0 °F 50.0 °F 100% 30.02 in 4.0 mi Calm Calm - N/A   Clear
3:55 AM 50.0 °F 50.0 °F 100% 30.03 in 5.0 mi Calm Calm - N/A   Clear
4:15 AM 50.0 °F 50.0 °F 100% 30.03 in 3.0 mi Calm Calm - N/A   Clear
4:35 AM 48.2 °F 48.2 °F 100% 30.03 in 4.0 mi Calm Calm - N/A   Clear
4:55 AM 50.0 °F 50.0 °F 100% 30.03 in 4.0 mi Calm Calm - N/A   Clear
5:15 AM 50.0 °F 50.0 °F 100% 30.03 in 5.0 mi Calm Calm - N/A   Clear
5:35 AM 46.4 °F 46.4 °F 100% 30.03 in 5.0 mi Calm Calm - N/A   Clear
5:55 AM 46.4 °F 46.4 °F 100% 30.04 in 4.0 mi Calm Calm - N/A   Clear
6:15 AM 46.4 °F 46.4 °F 100% 30.05 in 2.0 mi Calm Calm - N/A   Clear
6:55 AM 46.4 °F 46.4 °F 100% 30.06 in 1.5 mi Calm Calm - N/A   Mist
7:15 AM 48.2 °F 48.2 °F 100% 30.07 in 2.5 mi NNW 5.8 mph - N/A   Clear
7:55 AM 53.6 °F 53.6 °F 100% 30.09 in 2.5 mi Calm Calm - N/A   Clear
8:15 AM 55.4 °F 53.6 °F 94% 30.10 in 3.0 mi NNW 4.6 mph - N/A   Clear
8:35 AM 55.4 °F 53.6 °F 94% 30.10 in 4.0 mi North 4.6 mph - N/A   Clear
8:55 AM 59.0 °F 55.4 °F 88% 30.10 in 5.0 mi North 4.6 mph - N/A   Clear
9:15 AM 59.0 °F 55.4 °F 88% 30.11 in 7.0 mi North 8.1 mph - N/A   Clear
9:35 AM 62.6 °F 55.4 °F 77% 30.12 in 7.0 mi North 8.1 mph - N/A   Clear
9:55 AM 62.6 °F 55.4 °F 77% 30.12 in 10.0 mi North 6.9 mph - N/A   Clear
10:15 AM 64.4 °F 55.4 °F 73% 30.12 in 10.0 mi NNE 6.9 mph - N/A   Clear
10:35 AM 66.2 °F 53.6 °F 64% 30.12 in 10.0 mi NNE 9.2 mph - N/A   Clear
10:55 AM 68.0 °F 53.6 °F 60% 30.12 in 10.0 mi NE 6.9 mph - N/A   Clear
11:15 AM 68.0 °F 51.8 °F 56% 30.12 in 10.0 mi NNE 9.2 mph - N/A   Clear
11:35 AM 69.8 °F 51.8 °F 53% 30.12 in 10.0 mi NE 10.4 mph 17.3 mph N/A   Clear
11:55 AM 69.8 °F 51.8 °F 53% 30.11 in 10.0 mi North 11.5 mph - N/A   Clear
12:15 PM 71.6 °F 51.8 °F 50% 30.11 in 10.0 mi NNE 15.0 mph 18.4 mph N/A   Clear
12:35 PM 71.6 °F 51.8 °F 50% 30.11 in 10.0 mi NNE 11.5 mph - N/A   Clear
12:55 PM 71.6 °F 50.0 °F 46% 30.10 in 10.0 mi North 11.5 mph 18.4 mph N/A   Clear
1:15 PM 73.4 °F 50.0 °F 44% 30.10 in 10.0 mi NNE 10.4 mph 20.7 mph N/A   Clear
1:35 PM 73.4 °F 50.0 °F 44% 30.09 in 10.0 mi North 10.4 mph 18.4 mph N/A   Clear
1:55 PM 73.4 °F 48.2 °F 41% 30.09 in 10.0 mi NE 5.8 mph 17.3 mph N/A   Clear
2:15 PM 73.4 °F 50.0 °F 44% 30.07 in 10.0 mi North 9.2 mph - N/A   Clear
2:35 PM 73.4 °F 48.2 °F 41% 30.06 in 10.0 mi NNE 5.8 mph 18.4 mph N/A   Clear
2:55 PM 75.2 °F 50.0 °F 41% 30.06 in 10.0 mi North 8.1 mph - N/A   Clear
3:15 PM 75.2 °F 51.8 °F 44% 30.05 in 10.0 mi North 8.1 mph - N/A   Clear
3:35 PM 77.0 °F 51.8 °F 41% 30.05 in 10.0 mi NNW 9.2 mph - N/A   Clear
3:55 PM 75.2 °F 53.6 °F 47% 30.05 in 10.0 mi NNW 9.2 mph - N/A   Clear
4:15 PM 75.2 °F 51.8 °F 44% 30.05 in 10.0 mi North 11.5 mph 16.1 mph N/A   Clear
4:35 PM 75.2 °F 51.8 °F 44% 30.04 in 10.0 mi NNW 9.2 mph - N/A   Clear
4:55 PM 75.2 °F 51.8 °F 44% 30.04 in 10.0 mi NNW 10.4 mph - N/A   Clear
5:15 PM 73.4 °F 50.0 °F 44% 30.04 in 10.0 mi North 12.7 mph - N/A   Clear
5:35 PM 73.4 °F 50.0 °F 44% 30.04 in 10.0 mi NNW 9.2 mph - N/A   Clear
5:55 PM 73.4 °F 50.0 °F 44% 30.04 in 10.0 mi North 8.1 mph - N/A   Clear
6:15 PM 71.6 °F 51.8 °F 50% 30.04 in 10.0 mi North 11.5 mph - N/A   Clear
6:35 PM 69.8 °F 51.8 °F 53% 30.04 in 10.0 mi North 10.4 mph - N/A   Clear
6:55 PM 66.2 °F 53.6 °F 64% 30.05 in 10.0 mi North 6.9 mph - N/A   Clear
7:15 PM 64.4 °F 51.8 °F 64% 30.05 in 10.0 mi North 5.8 mph - N/A   Clear
7:35 PM 64.4 °F 51.8 °F 64% 30.06 in 10.0 mi NNW 5.8 mph - N/A   Clear
7:55 PM 62.6 °F 51.8 °F 68% 30.06 in 10.0 mi North 5.8 mph - N/A   Clear
8:15 PM 60.8 °F 51.8 °F 72% 30.07 in 10.0 mi North 5.8 mph - N/A   Clear
8:35 PM 64.4 °F 50.0 °F 59% 30.08 in 10.0 mi North 9.2 mph - N/A   Clear
8:55 PM 64.4 °F 50.0 °F 59% 30.09 in 10.0 mi North 6.9 mph - N/A   Clear
9:15 PM 62.6 °F 50.0 °F 63% 30.09 in 10.0 mi North 5.8 mph - N/A   Clear
9:35 PM 60.8 °F 50.0 °F 68% 30.09 in 10.0 mi North 4.6 mph - N/A   Clear
9:55 PM 59.0 °F 50.0 °F 72% 30.10 in 10.0 mi North 4.6 mph - N/A   Clear
10:15 PM 59.0 °F 50.0 °F 72% 30.10 in 10.0 mi Calm Calm - N/A   Clear
10:35 PM 59.0 °F 50.0 °F 72% 30.10 in 10.0 mi North 3.5 mph - N/A   Clear
10:55 PM 59.0 °F 50.0 °F 72% 30.11 in 10.0 mi Calm Calm - N/A   Clear
11:15 PM 55.4 °F 48.2 °F 77% 30.11 in 10.0 mi NNW 3.5 mph - N/A   Clear
11:35 PM 55.4 °F 50.0 °F 82% 30.11 in 10.0 mi Calm Calm - N/A   Clear
11:55 PM 55.4 °F 48.2 °F 77% 30.11 in 10.0 mi Calm Calm - N/A   Clear